Location: La Fredeussais
(48.1780°N, 1.3980°W)
Time: 17:49:59
(UTC+00:00)

X-37B - Pass Details

Date: 07 August 2021
Orbit: 381 x 393 km, 45.0° (Epoch: 29 August)

Event Time Altitude Azimuth Distance (km) Brightness Sun altitude
Exits shadow 02:33:16 29° 137° (SE) 725 1.8 -18.1°
Drops below altitude 10° 02:35:28 10° 99° (E) 1,398 3.7 -17.9°
Sets 02:37:38 0° 89° (E) 2,252 5.0 -17.7°
